Location: Ostrava
(49.8330°N, 18.2830°E)
Time: 19:56:09
(UTC+02:00)

Explorer 7 - Visible Passes

Search period start: 24 August 2016 00:00
Search period end: 03 September 2016 00:00
Orbit: 486 x 686 km, 50.3° (Epoch: 24 August)

Date Brightness Start Highest point End Pass type
(mag) Time Alt. Az. Time Alt. Az. Time Alt. Az.
24 Aug 8.7 21:52:18 10° W 21:56:07 25° SW 21:57:36 21° S visible
25 Aug 7.6 20:17:40 10° WNW 20:22:06 53° SSW 20:26:47 10° SE visible
25 Aug 9.1 21:59:06 10° W 22:02:10 17° SW 22:03:33 15° SSW visible
26 Aug 8.1 20:24:02 10° W 20:28:18 40° SSW 20:32:47 10° SE visible
26 Aug 9.6 22:06:45 10° WSW 22:08:09 11° SW 22:09:34 10° SSW visible
27 Aug 8.6 20:30:30 10° W 20:34:27 29° SW 20:38:34 10° SSE visible
28 Aug 9.1 20:37:09 10° W 20:40:32 20° SW 20:44:01 10° S visible
29 Aug 9.6 20:44:15 10° WSW 20:46:33 14° SW 20:48:54 10° SSW visible
